| time (UTC) | temp F | wind direction | speed MPH | gust MPH | rain 1hr in | rain 24hr in | rain mn in | humidity % | barometer mb |
| 20260507025013 | 42 | 305 | 3.0 | 5.0 | 0.00 | 0.15 | 0.00 | 91 | 1011.5 |
| 20260507024508 | 42 | 322 | 3.0 | 5.0 | 0.00 | 0.15 | 0.00 | 92 | 1011.4 |
| 20260507024504 | 42 | 322 | 3.0 | 5.0 | 0.00 | 0.15 | 0.00 | 92 | 1011.3 |
| 20260507024005 | 42 | 328 | 3.0 | 5.0 | 0.00 | 0.16 | 0.00 | 91 | 1011.4 |
| 20260507023503 | 42 | 348 | 3.0 | 6.0 | 0.00 | 0.16 | 0.00 | 91 | 1011.4 |
| 20260507023008 | 43 | 331 | 3.0 | 6.0 | 0.00 | 0.17 | 0.00 | 91 | 1011.4 |
| 20260507023003 | 43 | 331 | 3.0 | 6.0 | 0.00 | 0.17 | 0.00 | 91 | 1011.3 |
| 20260507022507 | 43 | 328 | 3.0 | 8.0 | 0.00 | 0.17 | 0.00 | 91 | 1011.3 |
| 20260507022008 | 43 | 328 | 4.0 | 8.0 | 0.00 | 0.17 | 0.00 | 91 | 1011.3 |
| 20260507021514 | 43 | 332 | 4.0 | 9.0 | 0.00 | 0.18 | 0.00 | 91 | 1011.2 |
| 20260507021504 | 43 | 332 | 4.0 | 9.0 | 0.00 | 0.18 | 0.00 | 91 | 1011.1 |
| 20260507021008 | 43 | 350 | 3.0 | 10.0 | 0.00 | 0.18 | 0.00 | 91 | 1011.2 |
| 20260507020508 | 43 | 338 | 6.0 | 10.0 | 0.00 | 0.18 | 0.00 | 91 | 1011.3 |
| 20260507020024 | 43 | 341 | 5.0 | 8.0 | 0.00 | 0.18 | 0.00 | 91 | 1011.2 |
| 20260507020004 | 43 | 341 | 5.0 | 8.0 | 0.00 | 0.18 | 0.00 | 91 | 1011.1 |
| 20260507015514 | 44 | 323 | 5.0 | 8.0 | 0.00 | 0.18 | 0.00 | 90 | 1011.2 |
| 20260507015006 | 44 | 321 | 4.0 | 8.0 | 0.00 | 0.19 | 0.00 | 90 | 1011.3 |
| 20260507014527 | 44 | 296 | 4.0 | 8.0 | 0.00 | 0.19 | 0.00 | 90 | 1011.2 |
| 20260507014506 | 44 | 295 | 4.0 | 8.0 | 0.00 | 0.19 | 0.00 | 90 | 1011.1 |
| 20260507014010 | 44 | 335 | 4.0 | 8.0 | 0.00 | 0.19 | 0.00 | 89 | 1011.2 |
| 20260507013508 | 44 | 323 | 4.0 | 6.0 | 0.00 | 0.20 | 0.00 | 89 | 1011.1 |
| 20260507013033 | 44 | 341 | 3.0 | 9.0 | 0.00 | 0.20 | 0.00 | 89 | 1011.1 |
| 20260507013007 | 44 | 330 | 3.0 | 9.0 | 0.00 | 0.20 | 0.00 | 89 | 1011.1 |
| 20260507012503 | 44 | 341 | 4.0 | 9.0 | 0.00 | 0.20 | 0.00 | 89 | 1011.1 |
| 20260507012007 | 44 | 342 | 4.0 | 9.0 | 0.00 | 0.21 | 0.00 | 89 | 1011.0 |
| 20260507011526 | 45 | 342 | 3.0 | 9.0 | 0.00 | 0.21 | 0.00 | 89 | 1011.0 |
| 20260507011504 | 45 | 342 | 3.0 | 9.0 | 0.00 | 0.21 | 0.00 | 89 | 1010.9 |
| 20260507011009 | 45 | 355 | 4.0 | 9.0 | 0.00 | 0.22 | 0.00 | 89 | 1010.9 |
| 20260507010510 | 45 | 338 | 4.0 | 9.0 | 0.00 | 0.22 | 0.00 | 89 | 1010.9 |
| 20260507010020 | 45 | 335 | 6.0 | 9.0 | 0.00 | 0.22 | 0.00 | 89 | 1010.8 |
| 20260507010015 | 45 | 335 | 6.0 | 9.0 | 0.00 | 0.22 | 0.00 | 89 | 1010.8 |
| 20260507005508 | 45 | 340 | 5.0 | 10.0 | 0.00 | 0.22 | 0.00 | 89 | 1010.8 |
| 20260507005014 | 45 | 5 | 5.0 | 10.0 | 0.00 | 0.23 | 0.00 | 88 | 1010.8 |
| 20260507004524 | 45 | 334 | 7.0 | 10.0 | 0.00 | 0.23 | 0.00 | 88 | 1010.8 |
| 20260507004506 | 45 | 334 | 7.0 | 10.0 | 0.00 | 0.23 | 0.00 | 88 | 1010.7 |
| 20260507004007 | 45 | 342 | 5.0 | 12.0 | 0.00 | 0.24 | 0.00 | 88 | 1010.7 |
| 20260507003509 | 45 | 318 | 4.0 | 12.0 | 0.00 | 0.24 | 0.00 | 88 | 1010.7 |
| 20260507003026 | 46 | 342 | 5.0 | 10.0 | 0.00 | 0.24 | 0.00 | 88 | 1010.7 |
| 20260507003011 | 46 | 338 | 5.0 | 10.0 | 0.00 | 0.24 | 0.00 | 88 | 1010.7 |
| 20260507002513 | 46 | 345 | 5.0 | 11.0 | 0.00 | 0.25 | 0.00 | 88 | 1010.7 |
| 20260507002011 | 46 | 333 | 7.0 | 12.0 | 0.00 | 0.25 | 0.00 | 88 | 1010.6 |
| 20260507001528 | 46 | 5 | 8.0 | 14.0 | 0.00 | 0.25 | 0.00 | 87 | 1010.6 |
| 20260507001508 | 46 | 346 | 8.0 | 14.0 | 0.00 | 0.25 | 0.00 | 87 | 1010.6 |
| 20260507001007 | 46 | 346 | 10.0 | 14.0 | 0.00 | 0.25 | 0.00 | 87 | 1010.6 |
| 20260507000507 | 46 | 348 | 8.0 | 11.0 | 0.00 | 0.25 | 0.00 | 87 | 1010.6 |
| 20260507000016 | 46 | 336 | 7.0 | 11.0 | 0.00 | 0.25 | 0.00 | 87 | 1010.6 |
| 20260507000008 | 46 | 336 | 7.0 | 11.0 | 0.00 | 0.25 | 0.00 | 87 | 1010.6 |
| 20260506235507 | 46 | 338 | 5.0 | 11.0 | 0.00 | 0.25 | 0.00 | 87 | 1010.5 |
| 20260506235006 | 46 | 344 | 6.0 | 11.0 | 0.00 | 0.25 | 0.00 | 87 | 1010.6 |
| 20260506234520 | 46 | 334 | 5.0 | 12.0 | 0.00 | 0.25 | 0.00 | 86 | 1010.7 |
| 20260506234507 | 46 | 334 | 5.0 | 12.0 | 0.00 | 0.25 | 0.00 | 86 | 1010.6 |
| 20260506234006 | 46 | 319 | 7.0 | 12.0 | 0.00 | 0.25 | 0.00 | 86 | 1010.6 |
| 20260506233510 | 46 | 342 | 7.0 | 11.0 | 0.00 | 0.25 | 0.00 | 86 | 1010.6 |
| 20260506233024 | 47 | 341 | 9.0 | 12.0 | 0.00 | 0.25 | 0.00 | 86 | 1010.6 |
| 20260506233008 | 47 | 341 | 9.0 | 12.0 | 0.00 | 0.25 | 0.00 | 86 | 1010.6 |
| 20260506232508 | 47 | 338 | 8.0 | 12.0 | 0.00 | 0.25 | 0.00 | 86 | 1010.6 |
| 20260506232009 | 47 | 336 | 6.0 | 13.0 | 0.00 | 0.25 | 0.00 | 85 | 1010.5 |
| 20260506231525 | 47 | 344 | 8.0 | 13.0 | 0.00 | 0.25 | 0.00 | 85 | 1010.5 |
| 20260506231508 | 47 | 336 | 8.0 | 13.0 | 0.00 | 0.25 | 0.00 | 85 | 1010.4 |
| 20260506231007 | 47 | 340 | 7.0 | 15.0 | 0.00 | 0.25 | 0.00 | 84 | 1010.5 |
| 20260506230509 | 47 | 350 | 10.0 | 15.0 | 0.00 | 0.25 | 0.00 | 84 | 1010.5 |
| 20260506230031 | 47 | 321 | 7.0 | 13.0 | 0.00 | 0.25 | 0.00 | 84 | 1010.4 |
| 20260506230013 | 47 | 5 | 7.0 | 13.0 | 0.00 | 0.25 | 0.00 | 84 | 1010.4 |
| 20260506225508 | 48 | 327 | 7.0 | 14.0 | 0.00 | 0.25 | 0.00 | 84 | 1010.4 |
| 20260506225011 | 48 | 330 | 10.0 | 14.0 | 0.00 | 0.25 | 0.00 | 83 | 1010.3 |
| 20260506224517 | 48 | 338 | 9.0 | 14.0 | 0.00 | 0.25 | 0.00 | 83 | 1010.4 |
| 20260506224506 | 48 | 338 | 9.0 | 14.0 | 0.00 | 0.25 | 0.00 | 83 | 1010.3 |
| 20260506224006 | 48 | 347 | 9.0 | 15.0 | 0.00 | 0.25 | 0.00 | 83 | 1010.3 |
| 20260506223506 | 48 | 300 | 9.0 | 15.0 | 0.00 | 0.25 | 0.00 | 83 | 1010.3 |
| 20260506223020 | 48 | 324 | 5.0 | 15.0 | 0.00 | 0.25 | 0.00 | 83 | 1010.3 |
| 20260506223006 | 48 | 324 | 5.0 | 15.0 | 0.00 | 0.25 | 0.00 | 83 | 1010.2 |
| 20260506222509 | 48 | 341 | 9.0 | 15.0 | 0.00 | 0.25 | 0.00 | 84 | 1010.3 |
| 20260506222013 | 48 | 338 | 6.0 | 10.0 | 0.00 | 0.25 | 0.00 | 84 | 1010.3 |
| 20260506221525 | 49 | 344 | 7.0 | 10.0 | 0.00 | 0.25 | 0.00 | 84 | 1010.2 |
| 20260506221510 | 49 | 344 | 6.0 | 10.0 | 0.00 | 0.25 | 0.00 | 84 | 1010.2 |
| 20260506221015 | 49 | 5 | 5.0 | 10.0 | 0.00 | 0.25 | 0.00 | 84 | 1010.3 |
| 20260506220509 | 49 | 350 | 5.0 | 10.0 | 0.00 | 0.25 | 0.00 | 84 | 1010.3 |
| 20260506220028 | 49 | 345 | 6.0 | 10.0 | 0.00 | 0.25 | 0.00 | 83 | 1010.2 |
| 20260506220012 | 49 | 330 | 6.0 | 10.0 | 0.00 | 0.25 | 0.00 | 83 | 1010.2 |
| 20260506215510 | 49 | 326 | 5.0 | 10.0 | 0.00 | 0.25 | 0.25 | 83 | 1010.2 |
| 20260506215011 | 49 | 323 | 5.0 | 9.0 | 0.00 | 0.25 | 0.25 | 83 | 1010.2 |
| 20260506214529 | 49 | 315 | 4.0 | 9.0 | 0.00 | 0.25 | 0.25 | 82 | 1010.2 |
| 20260506214518 | 49 | 300 | 5.0 | 9.0 | 0.00 | 0.25 | 0.25 | 82 | 1010.0 |
| 20260506214007 | 49 | 317 | 4.0 | 9.0 | 0.00 | 0.25 | 0.25 | 82 | 1010.1 |
| 20260506213506 | 49 | 325 | 4.0 | 8.0 | 0.00 | 0.25 | 0.25 | 82 | 1010.1 |
| 20260506213018 | 49 | 342 | 3.0 | 6.0 | 0.00 | 0.25 | 0.25 | 81 | 1010.1 |
| 20260506213010 | 49 | 342 | 3.0 | 6.0 | 0.00 | 0.25 | 0.25 | 81 | 1009.9 |
| 20260506212510 | 49 | 331 | 4.0 | 6.0 | 0.00 | 0.25 | 0.25 | 81 | 1010.0 |
| 20260506212004 | 49 | 331 | 3.0 | 6.0 | 0.00 | 0.25 | 0.25 | 81 | 1010.1 |
| 20260506211525 | 49 | 329 | 3.0 | 6.0 | 0.00 | 0.25 | 0.25 | 82 | 1010.0 |
| 20260506211510 | 49 | 330 | 3.0 | 6.0 | 0.00 | 0.25 | 0.25 | 82 | 1009.9 |
| 20260506211004 | 49 | 333 | 3.0 | 6.0 | 0.00 | 0.25 | 0.25 | 81 | 1010.0 |
| 20260506210504 | 49 | 340 | 3.0 | 5.0 | 0.00 | 0.25 | 0.25 | 82 | 1010.0 |
| 20260506210012 | 49 | 343 | 4.0 | 5.0 | 0.00 | 0.25 | 0.25 | 81 | 1010.0 |
| 20260506210007 | 49 | 346 | 4.0 | 6.0 | 0.00 | 0.25 | 0.25 | 81 | 1009.8 |
| 20260506205511 | 49 | 340 | 2.0 | 5.0 | 0.00 | 0.25 | 0.25 | 81 | 1010.0 |
| 20260506205009 | 49 | 328 | 2.0 | 5.0 | 0.00 | 0.25 | 0.25 | 81 | 1010.0 |
| 20260506204527 | 49 | 345 | 2.0 | 5.0 | 0.00 | 0.25 | 0.25 | 80 | 1009.9 |
| 20260506204007 | 49 | 349 | 2.0 | 5.0 | 0.00 | 0.25 | 0.25 | 80 | 1009.9 |
| 20260506203507 | 49 | 355 | 3.0 | 7.0 | 0.00 | 0.25 | 0.25 | 80 | 1009.9 |
| 20260506203035 | 49 | 350 | 4.0 | 7.0 | 0.00 | 0.25 | 0.25 | 80 | 1009.9 |
| 20260506203015 | 49 | 336 | 4.0 | 8.0 | 0.00 | 0.25 | 0.25 | 80 | 1009.8 |
| 20260506202510 | 49 | 336 | 4.0 | 6.0 | 0.00 | 0.25 | 0.25 | 80 | 1009.9 |
| 20260506202013 | 50 | 348 | 3.0 | 5.0 | 0.00 | 0.25 | 0.25 | 79 | 1009.8 |
| 20260506201522 | 50 | 355 | 2.0 | 5.0 | 0.00 | 0.25 | 0.25 | 79 | 1009.8 |
| 20260506201515 | 50 | 355 | 2.0 | 5.0 | 0.00 | 0.25 | 0.25 | 79 | 1009.6 |
| 20260506201010 | 50 | 9 | 0.0 | 6.0 | 0.00 | 0.25 | 0.25 | 79 | 1009.8 |
| 20260506200502 | 50 | 53 | 1.0 | 8.0 | 0.00 | 0.25 | 0.25 | 78 | 1009.8 |
| 20260506200015 | 50 | 80 | 3.0 | 8.0 | 0.00 | 0.25 | 0.25 | 78 | 1009.6 |
| 20260506200004 | 50 | 5 | 3.0 | 8.0 | 0.00 | 0.25 | 0.25 | 78 | 1009.8 |
| 20260506195502 | 50 | 355 | 2.0 | 8.0 | 0.00 | 0.25 | 0.25 | 78 | 1009.8 |
| 20260506195002 | 50 | 11 | 2.0 | 8.0 | 0.00 | 0.25 | 0.25 | 78 | 1009.7 |
| 20260506194510 | 50 | 13 | 3.0 | 8.0 | 0.00 | 0.25 | 0.25 | 78 | 1009.7 |
| 20260506194003 | 50 | 338 | 3.0 | 8.0 | 0.00 | 0.25 | 0.25 | 78 | 1009.6 |
| 20260506193503 | 50 | 5 | 3.0 | 8.0 | 0.00 | 0.25 | 0.25 | 78 | 1009.5 |
| 20260506193016 | 50 | 48 | 4.0 | 8.0 | 0.00 | 0.25 | 0.25 | 78 | 1009.5 |
| 20260506192507 | 50 | 5 | 2.0 | 6.0 | 0.00 | 0.25 | 0.25 | 78 | 1009.5 |
| 20260506192014 | 50 | 5 | 3.0 | 6.0 | 0.00 | 0.25 | 0.25 | 78 | 1009.4 |
| 20260506191518 | 50 | 5 | 2.0 | 8.0 | 0.00 | 0.25 | 0.25 | 77 | 1009.3 |
| 20260506191514 | 50 | 5 | 2.0 | 8.0 | 0.00 | 0.25 | 0.25 | 77 | 1009.2 |
| 20260506191006 | 50 | 140 | 3.0 | 11.0 | 0.00 | 0.25 | 0.25 | 77 | 1009.3 |
| 20260506190509 | 50 | 14 | 4.0 | 11.0 | 0.00 | 0.25 | 0.25 | 77 | 1009.3 |
| 20260506190021 | 50 | 81 | 5.0 | 9.0 | 0.00 | 0.25 | 0.25 | 77 | 1009.2 |
| 20260506190011 | 50 | 81 | 5.0 | 9.0 | 0.00 | 0.25 | 0.25 | 77 | 1009.1 |
| 20260506185510 | 50 | 346 | 1.0 | 9.0 | 0.00 | 0.25 | 0.25 | 77 | 1009.2 |
| 20260506185009 | 50 | 26 | 3.0 | 9.0 | 0.00 | 0.25 | 0.25 | 77 | 1009.2 |
| 20260506184519 | 50 | 16 | 3.0 | 10.0 | 0.00 | 0.25 | 0.25 | 78 | 1008.9 |
| 20260506184506 | 50 | 22 | 3.0 | 10.0 | 0.00 | 0.25 | 0.25 | 78 | 1009.1 |
| 20260506184004 | 50 | 5 | 4.0 | 11.0 | 0.00 | 0.25 | 0.25 | 77 | 1009.0 |
| 20260506183505 | 50 | 53 | 4.0 | 11.0 | 0.00 | 0.25 | 0.25 | 77 | 1009.0 |
| 20260506183011 | 50 | 15 | 4.0 | 9.0 | 0.00 | 0.25 | 0.25 | 77 | 1008.8 |
| 20260506183008 | 50 | 15 | 4.0 | 9.0 | 0.00 | 0.25 | 0.25 | 77 | 1008.9 |
| 20260506182507 | 51 | 5 | 3.0 | 9.0 | 0.00 | 0.25 | 0.25 | 78 | 1008.9 |
| 20260506182013 | 51 | 13 | 2.0 | 9.0 | 0.00 | 0.25 | 0.25 | 77 | 1008.8 |
| 20260506181515 | 51 | 63 | 3.0 | 9.0 | 0.00 | 0.25 | 0.25 | 77 | 1008.7 |
| 20260506181007 | 51 | 340 | 3.0 | 10.0 | 0.00 | 0.25 | 0.25 | 77 | 1008.7 |
| 20260506180509 | 51 | 80 | 4.0 | 10.0 | 0.00 | 0.25 | 0.25 | 76 | 1008.6 |
| 20260506180026 | 51 | 38 | 4.0 | 10.0 | 0.00 | 0.25 | 0.25 | 76 | 1008.5 |
| 20260506180016 | 51 | 38 | 4.0 | 10.0 | 0.00 | 0.25 | 0.25 | 76 | 1008.4 |
| 20260506175509 | 51 | 55 | 5.0 | 10.0 | 0.00 | 0.25 | 0.25 | 76 | 1008.4 |
| 20260506175012 | 51 | 32 | 5.0 | 10.0 | 0.00 | 0.25 | 0.25 | 76 | 1008.3 |
| 20260506174524 | 51 | 27 | 2.0 | 7.0 | 0.00 | 0.25 | 0.25 | 76 | 1008.3 |
| 20260506174513 | 51 | 27 | 2.0 | 7.0 | 0.00 | 0.25 | 0.25 | 76 | 1008.2 |
| 20260506174009 | 51 | 347 | 2.0 | 6.0 | 0.00 | 0.25 | 0.25 | 76 | 1008.2 |
| 20260506173504 | 51 | 26 | 4.0 | 7.0 | 0.00 | 0.25 | 0.25 | 75 | 1008.2 |
| 20260506173013 | 51 | 41 | 3.0 | 10.0 | 0.00 | 0.25 | 0.25 | 75 | 1008.1 |
| 20260506172503 | 51 | 27 | 2.0 | 10.0 | 0.00 | 0.25 | 0.25 | 75 | 1008.1 |
| 20260506172006 | 51 | 40 | 3.0 | 10.0 | 0.00 | 0.25 | 0.25 | 74 | 1008.1 |
| 20260506171514 | 51 | 19 | 3.0 | 12.0 | 0.00 | 0.25 | 0.25 | 74 | 1008.1 |
| 20260506171512 | 51 | 26 | 3.0 | 12.0 | 0.00 | 0.25 | 0.25 | 74 | 1008.0 |
| 20260506171004 | 51 | 62 | 4.0 | 12.0 | 0.00 | 0.25 | 0.25 | 74 | 1008.1 |
| 20260506170508 | 51 | 355 | 5.0 | 11.0 | 0.00 | 0.25 | 0.25 | 75 | 1008.1 |
| 20260506170018 | 51 | 61 | 5.0 | 12.0 | 0.00 | 0.25 | 0.25 | 74 | 1008.1 |
| 20260506170014 | 51 | 61 | 5.0 | 12.0 | 0.00 | 0.25 | 0.25 | 74 | 1007.9 |
| 20260506165511 | 50 | 46 | 7.0 | 13.0 | 0.00 | 0.25 | 0.25 | 74 | 1008.0 |
| 20260506165010 | 50 | 38 | 6.0 | 16.0 | 0.00 | 0.25 | 0.25 | 74 | 1008.1 |
| 20260506164520 | 50 | 13 | 10.0 | 19.0 | 0.00 | 0.25 | 0.25 | 74 | 1008.0 |
| 20260506164516 | 50 | 46 | 9.0 | 19.0 | 0.00 | 0.25 | 0.25 | 74 | 1007.9 |
| 20260506164011 | 50 | 59 | 12.0 | 19.0 | 0.00 | 0.25 | 0.25 | 75 | 1008.0 |
| 20260506163509 | 50 | 58 | 7.0 | 16.0 | 0.00 | 0.25 | 0.25 | 75 | 1008.0 |
| 20260506163031 | 50 | 44 | 6.0 | 14.0 | 0.00 | 0.25 | 0.25 | 76 | 1008.1 |
| 20260506163014 | 50 | 44 | 6.0 | 14.0 | 0.00 | 0.25 | 0.25 | 76 | 1007.9 |
| 20260506162510 | 50 | 49 | 5.0 | 14.0 | 0.00 | 0.25 | 0.25 | 77 | 1008.1 |
| 20260506162006 | 50 | 59 | 8.0 | 14.0 | 0.00 | 0.25 | 0.25 | 77 | 1008.0 |
| 20260506161511 | 50 | 32 | 8.0 | 15.0 | 0.00 | 0.25 | 0.25 | 77 | 1008.0 |
| 20260506161005 | 50 | 34 | 9.0 | 15.0 | 0.00 | 0.25 | 0.25 | 78 | 1008.1 |
| 20260506160510 | 50 | 59 | 9.0 | 13.0 | 0.00 | 0.25 | 0.25 | 78 | 1008.2 |
| 20260506160015 | 50 | 27 | 8.0 | 14.0 | 0.00 | 0.25 | 0.25 | 79 | 1008.1 |
| 20260506160012 | 50 | 27 | 8.0 | 14.0 | 0.00 | 0.25 | 0.25 | 79 | 1008.3 |
| 20260506155506 | 50 | 39 | 4.0 | 14.0 | 0.00 | 0.25 | 0.25 | 80 | 1008.2 |
| 20260506155009 | 50 | 65 | 5.0 | 14.0 | 0.00 | 0.25 | 0.25 | 80 | 1008.3 |
| 20260506154521 | 49 | 11 | 7.0 | 16.0 | 0.00 | 0.25 | 0.25 | 80 | 1008.2 |
| 20260506154013 | 49 | 30 | 6.0 | 19.0 | 0.00 | 0.25 | 0.25 | 81 | 1008.2 |
| 20260506153511 | 49 | 323 | 10.0 | 19.0 | 0.00 | 0.25 | 0.25 | 80 | 1008.1 |
| 20260506153021 | 49 | 51 | 8.0 | 16.0 | 0.00 | 0.25 | 0.25 | 82 | 1008.2 |
| 20260506152508 | 49 | 15 | 9.0 | 16.0 | 0.00 | 0.25 | 0.25 | 83 | 1008.1 |
| 20260506152012 | 49 | 52 | 7.0 | 15.0 | 0.00 | 0.25 | 0.25 | 83 | 1008.0 |
| 20260506151526 | 49 | 37 | 8.0 | 15.0 | 0.00 | 0.25 | 0.25 | 84 | 1008.1 |
| 20260506151508 | 49 | 38 | 8.0 | 15.0 | 0.00 | 0.25 | 0.25 | 84 | 1007.9 |
| 20260506151008 | 49 | 12 | 8.0 | 14.0 | 0.00 | 0.25 | 0.25 | 84 | 1008.0 |
| 20260506150507 | 49 | 51 | 5.0 | 13.0 | 0.00 | 0.25 | 0.25 | 86 | 1007.9 |
| 20260506150012 | 49 | 5 | 4.0 | 13.0 | 0.00 | 0.25 | 0.25 | 86 | 1007.9 |
| 20260506145511 | 49 | 26 | 5.0 | 12.0 | 0.00 | 0.25 | 0.25 | 87 | 1007.9 |
| 20260506145008 | 49 | 32 | 5.0 | 11.0 | 0.00 | 0.25 | 0.25 | 87 | 1007.8 |
| 20260506144534 | 49 | 33 | 5.0 | 14.0 | 0.00 | 0.25 | 0.25 | 87 | 1007.8 |
| 20260506144532 | 49 | 33 | 5.0 | 14.0 | 0.00 | 0.25 | 0.25 | 87 | 1007.6 |
| 20260506144006 | 49 | 59 | 6.0 | 15.0 | 0.00 | 0.25 | 0.25 | 87 | 1007.7 |
| 20260506143508 | 49 | 123 | 6.0 | 15.0 | 0.00 | 0.25 | 0.25 | 87 | 1007.8 |
| 20260506143025 | 49 | 26 | 6.0 | 15.0 | 0.00 | 0.25 | 0.25 | 87 | 1007.7 |
| 20260506143020 | 49 | 26 | 6.0 | 15.0 | 0.00 | 0.25 | 0.25 | 87 | 1007.6 |
| 20260506142513 | 49 | 290 | 5.0 | 13.0 | 0.00 | 0.25 | 0.25 | 88 | 1007.7 |
| 20260506142010 | 49 | 14 | 6.0 | 13.0 | 0.00 | 0.25 | 0.25 | 88 | 1007.6 |
| 20260506141524 | 49 | 36 | 5.0 | 13.0 | 0.00 | 0.25 | 0.25 | 88 | 1007.7 |
| 20260506141520 | 49 | 36 | 5.0 | 13.0 | 0.00 | 0.25 | 0.25 | 88 | 1007.5 |
| 20260506141018 | 49 | 32 | 3.0 | 15.0 | 0.00 | 0.25 | 0.25 | 88 | 1007.7 |
| 20260506140511 | 48 | 83 | 7.0 | 19.0 | 0.00 | 0.25 | 0.25 | 88 | 1007.6 |
| 20260506140028 | 48 | 284 | 10.0 | 19.0 | 0.00 | 0.25 | 0.25 | 88 | 1007.7 |
| 20260506140010 | 48 | 284 | 10.0 | 19.0 | 0.00 | 0.25 | 0.25 | 88 | 1007.5 |
| 20260506135513 | 48 | 59 | 7.0 | 16.0 | 0.00 | 0.25 | 0.25 | 88 | 1007.6 |
| 20260506135003 | 48 | 355 | 7.0 | 16.0 | 0.00 | 0.25 | 0.25 | 88 | 1007.6 |
| 20260506134527 | 48 | 355 | 5.0 | 15.0 | 0.00 | 0.25 | 0.25 | 88 | 1007.6 |
| 20260506134523 | 48 | 355 | 5.0 | 15.0 | 0.00 | 0.25 | 0.25 | 88 | 1007.5 |
| 20260506134008 | 48 | 47 | 8.0 | 15.0 | 0.00 | 0.25 | 0.25 | 88 | 1007.5 |
| 20260506133506 | 48 | 17 | 6.0 | 13.0 | 0.00 | 0.25 | 0.25 | 88 | 1007.5 |
| 20260506133020 | 48 | 71 | 5.0 | 16.0 | 0.00 | 0.25 | 0.25 | 88 | 1007.4 |
| 20260506133018 | 48 | 53 | 5.0 | 16.0 | 0.00 | 0.25 | 0.25 | 88 | 1007.5 |
| 20260506132522 | 48 | 34 | 4.0 | 18.0 | 0.00 | 0.25 | 0.25 | 88 | 1007.6 |
| 20260506132011 | 48 | 5 | 9.0 | 18.0 | 0.00 | 0.25 | 0.25 | 88 | 1007.5 |
| 20260506131531 | 48 | 5 | 6.0 | 17.0 | 0.00 | 0.25 | 0.25 | 88 | 1007.6 |
| 20260506131523 | 48 | 34 | 6.0 | 17.0 | 0.00 | 0.25 | 0.25 | 88 | 1007.4 |
| 20260506131011 | 48 | 42 | 9.0 | 17.0 | 0.00 | 0.25 | 0.25 | 88 | 1007.5 |
| 20260506130507 | 48 | 334 | 7.0 | 13.0 | 0.00 | 0.25 | 0.25 | 88 | 1007.5 |
| 20260506130035 | 48 | 23 | 4.0 | 14.0 | 0.00 | 0.25 | 0.25 | 88 | 1007.5 |
| 20260506130018 | 48 | 23 | 4.0 | 14.0 | 0.00 | 0.25 | 0.25 | 88 | 1007.4 |
| 20260506125510 | 48 | 22 | 7.0 | 14.0 | 0.00 | 0.25 | 0.25 | 88 | 1007.5 |
| 20260506125010 | 48 | 90 | 5.0 | 14.0 | 0.00 | 0.25 | 0.25 | 88 | 1007.5 |
| 20260506124527 | 48 | 15 | 7.0 | 14.0 | 0.00 | 0.25 | 0.25 | 88 | 1007.4 |
| 20260506124010 | 48 | 355 | 6.0 | 13.0 | 0.00 | 0.25 | 0.25 | 88 | 1007.4 |
| 20260506123507 | 48 | 77 | 7.0 | 16.0 | 0.00 | 0.25 | 0.25 | 88 | 1007.4 |
| 20260506123028 | 48 | 225 | 8.0 | 16.0 | 0.00 | 0.25 | 0.25 | 88 | 1007.2 |
| 20260506122507 | 48 | 355 | 5.0 | 14.0 | 0.00 | 0.25 | 0.25 | 88 | 1007.3 |
| 20260506122010 | 48 | 54 | 6.0 | 14.0 | 0.00 | 0.25 | 0.25 | 88 | 1007.3 |
| 20260506121520 | 48 | 15 | 7.0 | 14.0 | 0.00 | 0.25 | 0.25 | 87 | 1007.3 |
| 20260506121518 | 48 | 15 | 7.0 | 14.0 | 0.00 | 0.25 | 0.25 | 87 | 1007.2 |
| 20260506121011 | 48 | 18 | 5.0 | 15.0 | 0.00 | 0.25 | 0.25 | 88 | 1007.4 |
| 20260506120514 | 48 | 360 | 5.0 | 15.0 | 0.00 | 0.25 | 0.25 | 87 | 1007.3 |
| 20260506120029 | 48 | 5 | 7.0 | 16.0 | 0.00 | 0.25 | 0.25 | 88 | 1007.0 |
| 20260506120023 | 48 | 36 | 7.0 | 16.0 | 0.00 | 0.25 | 0.25 | 88 | 1007.2 |
| 20260506115504 | 48 | 39 | 3.0 | 14.0 | 0.00 | 0.25 | 0.25 | 88 | 1007.1 |
| 20260506115002 | 48 | 5 | 11.0 | 14.0 | 0.00 | 0.25 | 0.25 | 89 | 1007.1 |
| 20260506114521 | 48 | 5 | 4.0 | 12.0 | 0.00 | 0.25 | 0.25 | 90 | 1007.0 |
| 20260506114504 | 48 | 355 | 4.0 | 12.0 | 0.00 | 0.25 | 0.25 | 90 | 1007.2 |
| 20260506114005 | 48 | 355 | 6.0 | 14.0 | 0.00 | 0.25 | 0.25 | 89 | 1007.1 |
| 20260506113506 | 48 | 5 | 5.0 | 14.0 | 0.00 | 0.25 | 0.25 | 90 | 1007.1 |
| 20260506113020 | 48 | 5 | 3.0 | 16.0 | 0.00 | 0.25 | 0.25 | 90 | 1006.9 |
| 20260506113007 | 48 | 67 | 3.0 | 16.0 | 0.00 | 0.25 | 0.25 | 90 | 1007.1 |
| 20260506112503 | 48 | 335 | 4.0 | 16.0 | 0.00 | 0.25 | 0.25 | 90 | 1007.1 |
| 20260506112003 | 48 | 355 | 6.0 | 15.0 | 0.00 | 0.24 | 0.24 | 90 | 1007.1 |
| 20260506111518 | 48 | 346 | 3.0 | 11.0 | 0.00 | 0.24 | 0.24 | 91 | 1006.8 |
| 20260506111507 | 48 | 346 | 3.0 | 10.0 | 0.00 | 0.24 | 0.24 | 91 | 1007.0 |
| 20260506111004 | 48 | 12 | 7.0 | 14.0 | 0.00 | 0.24 | 0.24 | 91 | 1007.0 |
| 20260506110505 | 47 | 22 | 7.0 | 14.0 | 0.00 | 0.24 | 0.24 | 91 | 1007.0 |
| 20260506110018 | 48 | 355 | 6.0 | 14.0 | 0.00 | 0.24 | 0.24 | 92 | 1006.7 |
| 20260506110006 | 48 | 215 | 7.0 | 14.0 | 0.00 | 0.24 | 0.24 | 92 | 1006.9 |
| 20260506105504 | 47 | 5 | 6.0 | 14.0 | 0.00 | 0.24 | 0.24 | 91 | 1006.9 |
| 20260506105005 | 47 | 5 | 7.0 | 15.0 | 0.00 | 0.24 | 0.24 | 92 | 1007.0 |
| 20260506104526 | 47 | 78 | 4.0 | 15.0 | 0.00 | 0.24 | 0.24 | 92 | 1006.7 |
| 20260506104506 | 47 | 77 | 5.0 | 15.0 | 0.00 | 0.24 | 0.24 | 92 | 1006.9 |
| 20260506104002 | 47 | 333 | 8.0 | 14.0 | 0.00 | 0.24 | 0.24 | 92 | 1006.9 |
| 20260506103504 | 47 | 159 | 3.0 | 12.0 | 0.00 | 0.24 | 0.24 | 92 | 1007.0 |
| 20260506103025 | 47 | 44 | 4.0 | 12.0 | 0.00 | 0.24 | 0.24 | 92 | 1006.6 |
| 20260506103009 | 47 | 17 | 4.0 | 12.0 | 0.00 | 0.24 | 0.24 | 92 | 1007.0 |
| 20260506102504 | 47 | 14 | 3.0 | 9.0 | 0.00 | 0.24 | 0.24 | 92 | 1007.0 |
| 20260506102006 | 47 | 24 | 4.0 | 12.0 | 0.00 | 0.24 | 0.24 | 92 | 1006.9 |
| 20260506101520 | 47 | 42 | 4.0 | 14.0 | 0.00 | 0.23 | 0.23 | 92 | 1006.9 |
| 20260506101516 | 47 | 42 | 4.0 | 14.0 | 0.00 | 0.23 | 0.23 | 92 | 1006.5 |
| 20260506101007 | 47 | 28 | 5.0 | 14.0 | 0.00 | 0.23 | 0.23 | 92 | 1006.8 |
| 20260506100505 | 47 | 23 | 4.0 | 13.0 | 0.00 | 0.23 | 0.23 | 92 | 1006.8 |
| 20260506100007 | 47 | 5 | 5.0 | 13.0 | 0.00 | 0.23 | 0.23 | 92 | 1006.8 |
| 20260506095506 | 47 | 5 | 5.0 | 18.0 | 0.00 | 0.23 | 0.23 | 92 | 1006.8 |
| 20260506095004 | 47 | 323 | 4.0 | 18.0 | 0.00 | 0.23 | 0.23 | 93 | 1006.8 |
| 20260506094525 | 46 | 19 | 7.0 | 13.0 | 0.00 | 0.23 | 0.23 | 93 | 1006.4 |
| 20260506094520 | 46 | 5 | 7.0 | 13.0 | 0.00 | 0.23 | 0.23 | 93 | 1006.8 |
| 20260506094004 | 47 | 32 | 5.0 | 11.0 | 0.01 | 0.23 | 0.23 | 93 | 1006.7 |
| 20260506093503 | 47 | 59 | 3.0 | 11.0 | 0.01 | 0.23 | 0.23 | 94 | 1006.8 |
| 20260506093031 | 47 | 114 | 4.0 | 9.0 | 0.01 | 0.23 | 0.23 | 93 | 1006.3 |
| 20260506093014 | 47 | 47 | 4.0 | 9.0 | 0.01 | 0.23 | 0.23 | 94 | 1006.8 |
| 20260506092504 | 47 | 297 | 2.0 | 10.0 | 0.01 | 0.23 | 0.23 | 94 | 1006.7 |
| 20260506092011 | 47 | 19 | 3.0 | 10.0 | 0.01 | 0.23 | 0.23 | 93 | 1006.7 |
| 20260506091524 | 47 | 11 | 3.0 | 11.0 | 0.01 | 0.23 | 0.23 | 93 | 1006.2 |
| 20260506091508 | 47 | 31 | 3.0 | 11.0 | 0.01 | 0.23 | 0.23 | 93 | 1006.7 |
| 20260506091004 | 46 | 348 | 3.0 | 9.0 | 0.02 | 0.23 | 0.23 | 93 | 1006.7 |
| 20260506090503 | 46 | 49 | 3.0 | 10.0 | 0.02 | 0.23 | 0.23 | 93 | 1006.7 |
| 20260506090015 | 46 | 355 | 4.0 | 11.0 | 0.01 | 0.22 | 0.22 | 93 | 1006.2 |
| 20260506090007 | 46 | 38 | 4.0 | 10.0 | 0.01 | 0.22 | 0.22 | 93 | 1006.7 |
| 20260506085503 | 46 | 38 | 3.0 | 11.0 | 0.01 | 0.22 | 0.22 | 93 | 1006.7 |
| 20260506085004 | 46 | 34 | 5.0 | 11.0 | 0.02 | 0.22 | 0.22 | 93 | 1006.7 |
| 20260506084519 | 46 | 32 | 3.0 | 10.0 | 0.02 | 0.22 | 0.22 | 93 | 1006.2 |
| 20260506084511 | 46 | 32 | 3.0 | 10.0 | 0.02 | 0.22 | 0.22 | 93 | 1006.6 |
| 20260506084004 | 46 | 355 | 3.0 | 10.0 | 0.01 | 0.22 | 0.22 | 93 | 1006.7 |
| 20260506083505 | 46 | 26 | 5.0 | 11.0 | 0.01 | 0.22 | 0.22 | 93 | 1006.6 |
| 20260506083029 | 46 | 48 | 5.0 | 11.0 | 0.02 | 0.22 | 0.22 | 93 | 1006.1 |
| 20260506083011 | 46 | 5 | 5.0 | 11.0 | 0.02 | 0.22 | 0.22 | 93 | 1006.6 |
| 20260506082503 | 46 | 90 | 3.0 | 9.0 | 0.02 | 0.22 | 0.22 | 93 | 1006.5 |
| 20260506082006 | 46 | 19 | 3.0 | 11.0 | 0.02 | 0.22 | 0.22 | 93 | 1006.6 |
| 20260506081510 | 46 | 44 | 4.0 | 11.0 | 0.02 | 0.22 | 0.22 | 93 | 1006.4 |
| 20260506081006 | 46 | 39 | 4.0 | 11.0 | 0.01 | 0.21 | 0.21 | 93 | 1006.5 |
| 20260506080506 | 46 | 26 | 6.0 | 10.0 | 0.01 | 0.21 | 0.21 | 93 | 1006.5 |
| 20260506073507 | 45 | 57 | 2.0 | 11.0 | 0.01 | 0.20 | 0.20 | 93 | 1006.3 |
| 20260506073026 | 45 | 74 | 3.0 | 9.0 | 0.01 | 0.19 | 0.19 | 93 | 1006.3 |
| 20260506073021 | 45 | 74 | 3.0 | 9.0 | 0.01 | 0.19 | 0.19 | 93 | 1005.9 |
| 20260506072507 | 45 | 61 | 4.0 | 10.0 | 0.01 | 0.19 | 0.19 | 93 | 1006.3 |
| 20260506072008 | 45 | 67 | 5.0 | 11.0 | 0.01 | 0.19 | 0.19 | 93 | 1006.3 |
| 20260506071525 | 45 | 5 | 4.0 | 13.0 | 0.02 | 0.19 | 0.19 | 93 | 1005.9 |
| 20260506071504 | 45 | 26 | 4.0 | 13.0 | 0.02 | 0.19 | 0.19 | 93 | 1006.2 |
| 20260506071006 | 45 | 16 | 5.0 | 13.0 | 0.02 | 0.19 | 0.19 | 93 | 1006.2 |
| 20260506070506 | 45 | 44 | 4.0 | 17.0 | 0.02 | 0.19 | 0.19 | 93 | 1006.1 |
| 20260506062509 | 46 | 59 | 5.0 | 12.0 | 0.02 | 0.18 | 0.18 | 94 | 1005.9 |
| 20260506062009 | 46 | 46 | 5.0 | 12.0 | 0.02 | 0.18 | 0.18 | 93 | 1005.8 |
| 20260506061516 | 46 | 64 | 5.0 | 11.0 | 0.01 | 0.17 | 0.17 | 93 | 1005.8 |
| 20260506061505 | 46 | 355 | 5.0 | 11.0 | 0.01 | 0.17 | 0.17 | 93 | 1005.6 |
| 20260506061006 | 46 | 24 | 3.0 | 11.0 | 0.01 | 0.17 | 0.17 | 94 | 1005.7 |
| 20260506060506 | 46 | 59 | 5.0 | 13.0 | 0.01 | 0.17 | 0.17 | 94 | 1005.7 |
| 20260506051009 | 47 | 126 | 4.0 | 10.0 | 0.01 | 0.15 | 0.15 | 95 | 1005.4 |
| 20260506050506 | 47 | 71 | 2.0 | 11.0 | 0.01 | 0.15 | 0.15 | 95 | 1005.4 |
| 20260506045007 | 47 | 355 | 4.0 | 10.0 | 0.02 | 0.15 | 0.15 | 96 | 1005.6 |
| 20260506044549 | 47 | 327 | 3.0 | 13.0 | 0.02 | 0.16 | 0.15 | 96 | 1005.5 |
| 20260506044512 | 47 | 5 | 3.0 | 13.0 | 0.02 | 0.16 | 0.15 | 96 | 1005.2 |
| 20260506044005 | 47 | 30 | 3.0 | 13.0 | 0.01 | 0.15 | 0.14 | 96 | 1005.6 |
| 20260506043506 | 47 | 29 | 4.0 | 10.0 | 0.01 | 0.15 | 0.14 | 96 | 1005.6 |
| 20260506043020 | 47 | 17 | 3.0 | 8.0 | 0.02 | 0.15 | 0.14 | 96 | 1005.2 |
| 20260506043016 | 47 | 17 | 3.0 | 8.0 | 0.02 | 0.15 | 0.14 | 96 | 1005.6 |
| 20260506042509 | 47 | 38 | 3.0 | 9.0 | 0.02 | 0.15 | 0.14 | 96 | 1005.6 |
| 20260506042012 | 47 | 335 | 4.0 | 9.0 | 0.02 | 0.15 | 0.14 | 96 | 1005.6 |
| 20260506041522 | 47 | 355 | 4.0 | 10.0 | 0.01 | 0.14 | 0.14 | 95 | 1005.2 |
| 20260506041519 | 47 | 355 | 4.0 | 10.0 | 0.01 | 0.14 | 0.14 | 95 | 1005.6 |
| 20260506041012 | 47 | 355 | 6.0 | 10.0 | 0.02 | 0.15 | 0.14 | 95 | 1005.6 |
| 20260506040510 | 47 | 5 | 4.0 | 8.0 | 0.02 | 0.15 | 0.14 | 95 | 1005.7 |
| 20260506040026 | 47 | 336 | 3.0 | 9.0 | 0.03 | 0.16 | 0.14 | 95 | 1005.3 |
| 20260506040022 | 47 | 336 | 3.0 | 9.0 | 0.03 | 0.16 | 0.14 | 95 | 1005.6 |
| 20260506035506 | 47 | 348 | 4.0 | 9.0 | 0.03 | 0.16 | 0.14 | 95 | 1005.6 |
| 20260506035007 | 47 | 340 | 5.0 | 8.0 | 0.03 | 0.16 | 0.13 | 95 | 1005.7 |
| 20260506034543 | 47 | 348 | 4.0 | 8.0 | 0.03 | 0.16 | 0.13 | 95 | 1005.7 |
| 20260506034506 | 47 | 348 | 4.0 | 8.0 | 0.03 | 0.16 | 0.13 | 95 | 1005.3 |
| 20260506034008 | 47 | 334 | 3.0 | 8.0 | 0.03 | 0.17 | 0.13 | 95 | 1005.8 |
| 20260506033506 | 47 | 342 | 4.0 | 8.0 | 0.03 | 0.17 | 0.13 | 95 | 1005.8 |
| 20260506033021 | 47 | 355 | 3.0 | 10.0 | 0.03 | 0.17 | 0.12 | 95 | 1005.8 |
| 20260506033018 | 47 | 340 | 3.0 | 10.0 | 0.03 | 0.17 | 0.12 | 95 | 1005.5 |
| 20260506032507 | 47 | 344 | 4.0 | 10.0 | 0.03 | 0.17 | 0.12 | 95 | 1005.9 |
| 20260506032008 | 47 | 350 | 3.0 | 10.0 | 0.04 | 0.18 | 0.12 | 95 | 1005.8 |
| 20260506031532 | 47 | 333 | 3.0 | 10.0 | 0.04 | 0.18 | 0.12 | 95 | 1005.5 |
| 20260506031521 | 47 | 333 | 3.0 | 10.0 | 0.04 | 0.18 | 0.12 | 95 | 1005.8 |
| 20260506031008 | 47 | 348 | 4.0 | 10.0 | 0.03 | 0.18 | 0.11 | 95 | 1005.8 |
| 20260506030510 | 47 | 336 | 4.0 | 9.0 | 0.03 | 0.18 | 0.11 | 95 | 1005.9 |
| 20260506030026 | 47 | 340 | 4.0 | 8.0 | 0.03 | 0.19 | 0.11 | 95 | 1005.6 |
| 20260506030019 | 47 | 340 | 4.0 | 8.0 | 0.03 | 0.19 | 0.11 | 95 | 1005.9 |
| 20260506025512 | 47 | 5 | 3.0 | 8.0 | 0.03 | 0.21 | 0.11 | 95 | 1005.9 |